Find Starlink 30951

NORAD ID: 58439 Int'l Des: 2023-183 Owner: SPXS Country: US Constellation: starlink operational
LEOCIRCULAR

实时位置

正在加载3D地球...

关于 Starlink 30951

正在加载描述...

即将过境

Passes for default location (London). Set your location on the main map for personalized predictions.

高度历史

Loading altitude history...

两行轨道根数

1 58439U 23183C 26126.23551451 .00001215 00000-0 53671-4 0 9994
2 58439 43.0030 76.7664 0000776 270.1591 89.9171 15.27583930135537
Epoch: May 6, 2026 • Age: 7 hours

当前状态

高度 492.3 km
速度 7.62 km/s
星下点 -34.13°S, 117.37°W
发射日期 Nov 28, 2023
运行时间 2.4 years
类型 internet

技术详情

分类 Payload
质量 730.00 kg
干质量 700.00 kg
总质量 730.00 kg
长度 0.30 m
直径 4.10 m
跨度 29.00 m
形状 Box + pan
制造商 SPXS
平台类型 Starlink V2M
阶段状态 In Orbit
所有者/国家 SPXS/US

Most Searched